Home   Weather   Lausanne   Past weeks

Flag for Switzerland Past Weather in Lausanne, Vaud, Switzerland — Yesterday and Last 2 Weeks

Now
52 °F

Cool.


Feels Like: 52 °F
Forecast: 53 / 71 °F
Wind: 2 mph from South

Location: Aigle

Current Time: Sep 30, 2016 at 12:10:12 AM

Latest Report: Sep 29, 2016 at 11:00 PM


Visibility: N/A

Pressure: 30.18 "Hg

Humidity: 94%

Dew Point: 50 °F

Location of LausanneLocation

Past Weather in Lausanne — Graph

°F

Lausanne Temperature Yesterday

Maximum temperature yesterday: 74 °F (at 4:00 PM)
Minimum temperature yesterday: 49 °F (at 4:00 AM)
Average temperature yesterday: 60 °F

High & Low Weather Summary for the Past Weeks

 TemperatureHumidityPressure
High79 °F (Sep 14, 11:00 PM)100% (Sep 18, 12:00 AM)30.46 "Hg (Sep 18, 12:00 AM)
Low47 °F (Sep 25, 7:00 AM)29% (Sep 14, 11:00 PM)29.74 "Hg (Sep 15, 2:00 AM)
Average59 °F84%30.12 "Hg
* Reported Sep 14 10:00 PM — Sep 29 10:00 PM, Lausanne, Weather by CustomWeather, © 2016

Note: Actual official high and low records may vary slightly from our data, if they occured in-between our weather recording intervals... More about our weather records

Advertising

Lausanne Weather History for the Previous 24 Hours

Scroll right to see more
 ConditionsComfort  
Time TempWeatherWind HumidityBarometerVisibility
10:00 PM
Thu, Sep 29
52 °FCool.2 mph97%30.18 "HgN/A
9:00 PM56 °FCool.1 mph90%30.17 "HgN/A
8:00 PM59 °FClear.3 mph83%30.16 "Hg19 mi
7:00 PM60 °FCool.1 mph88%30.16 "HgN/A
6:00 PM72 °FMild.1 mph53%30.14 "HgN/A
5:00 PM74 °FSunny.3 mph47%30.14 "Hg19 mi
4:00 PM74 °FMild.5 mph50%30.16 "HgN/A
3:00 PM72 °FMild.7 mph55%30.18 "HgN/A
2:00 PM71 °FPassing clouds.6 mph62%30.21 "Hg19 mi
1:00 PM69 °FMild.6 mph63%30.25 "HgN/A
12:00 PM69 °FMild.3 mph59%30.27 "HgN/A
11:00 AM65 °FPassing clouds.3 mph60%30.30 "Hg19 mi
10:00 AM62 °FCool.3 mph70%30.32 "HgN/A
9:00 AM57 °FCool.3 mph83%30.34 "HgN/A
8:00 AM50 °FSunny.1 mph94%30.36 "Hg25 mi
7:00 AM49 °FCool.1 mph95%30.37 "HgN/A
6:00 AM51 °FCool.3 mph94%30.37 "HgN/A
5:00 AM51 °FClear.3 mph94%30.38 "Hg25 mi
4:00 AM49 °FCool.2 mph97%30.40 "HgN/A
3:00 AM52 °FCool.3 mph93%30.39 "HgN/A
2:00 AM53 °FCool.3 mph93%30.40 "HgN/A
1:00 AM53 °FCool.3 mph94%30.41 "HgN/A
12:00 AM54 °FCool.5 mph93%30.41 "HgN/A
Weather by CustomWeather, © 2016

See weather overviewHow to use our weather pages